Weather History for Wausau, WI

Change the Weather History Date:

Thursday, January 30, 2014

  Actual Average Record
Temperature  
Mean Temperature 14 °F 15 °F  
Max Temperature 26 °F 24 °F 43 °F (1999)
Min Temperature 2 °F 6 °F -40 °F (1951)
Degree Days  
Heating Degree Days 51 50  
Month to date heating degree days 1767 1517  
Since 1 July heating degree days 5240 4803  
Cooling Degree Days 0 0  
Month to date cooling degree days 0 0  
Year to date cooling degree days 0 0  
Moisture  
Dew Point 15 °F    
Average Humidity 76    
Maximum Humidity 96    
Minimum Humidity 55    
Precipitation  
Precipitation 0.38 in 0.03 in 0.88 in (1937)
Month to date precipitation 1.55 0.99  
Year to date precipitation 1.55 0.99  
Snow  
Snow 4.80 in 0.40 in 6.00 in (1946)
Month to date snowfall 23.3 13.1  
Since 1 July snowfall 52.0 35.3  
Snow Depth 22.00 in    
Sea Level Pressure  
Sea Level Pressure 29.60 in    
Wind  
Wind Speed 9 mph (SW)    
Max Wind Speed 20 mph    
Max Gust Speed 24 mph    
Visibility 6 miles    
Events Fog , Snow    
T = Trace of Precipitation, MM = Missing Value Source: NWS Daily Summary

Daily Weather History Graph

Daily Weather History Graph

Search for Another Location

Airport:

Trip Planner

Search our weather history database for the weather conditions in past years. The results will help you decide how hot, cold, wet, or windy it might be!

Date:

Astronomy

Jan. 30, 2014 Rise Set
Actual Time 7:20 AM CST 5:03 PM CST
Civil Twilight 6:48 AM CST 5:35 PM CST
Nautical Twilight 6:13 AM CST 6:10 PM CST
Astronomical Twilight 5:39 AM CST 6:44 PM CST
Moon 6:44 AM CST (1/30) 5:18 PM CST (1/30)
Length of Visible Light 10h 46m
Length of Day
9h 43m
Waning Crescent, 0% of the Moon is Illuminated
Jan 30
Waning Crescent
Jan 30
New
Feb 6
First Quarter
Feb 14
Full
Feb 22
Last Quarter

Hourly Weather History & Observations

Time (CST) Temp. Windchill Dew Point Humidity Pressure Visibility Wind Dir Wind Speed Gust Speed Precip Events Conditions
12:54 AM 23.0 °F 12.4 °F 10.0 °F 58% 29.67 in 10.0 mi SSW 10.4 mph - N/A   Clear
1:54 AM 24.1 °F 13.1 °F 10.9 °F 57% 29.65 in 10.0 mi SSW 11.5 mph - N/A   Clear
2:54 AM 24.1 °F 12.5 °F 12.0 °F 60% 29.64 in 10.0 mi SSW 12.7 mph - N/A   Partly Cloudy
3:54 AM 25.0 °F 13.6 °F 12.0 °F 58% 29.61 in 10.0 mi South 12.7 mph - N/A   Scattered Clouds
4:54 AM 25.0 °F 14.2 °F 12.9 °F 60% 29.61 in 10.0 mi SSW 11.5 mph - N/A   Overcast
5:54 AM 25.0 °F 14.2 °F 12.9 °F 60% 29.60 in 10.0 mi South 11.5 mph - N/A   Overcast
6:54 AM 25.0 °F 14.2 °F 12.9 °F 60% 29.59 in 10.0 mi South 11.5 mph - N/A   Overcast
7:50 AM 24.8 °F 13.4 °F 17.6 °F 74% 29.52 in 2.0 mi South 12.7 mph - 0.00 in Snow Light Snow
7:54 AM 23.0 °F 10.6 °F 18.0 °F 81% 29.59 in 1.0 mi South 13.8 mph - 0.00 in Snow Light Snow
8:03 AM 23.0 °F 10.6 °F 19.0 °F 85% 29.52 in 0.5 mi South 13.8 mph - 0.00 in Fog , Snow Light Snow
8:30 AM 21.9 °F 13.4 °F 19.9 °F 92% 29.51 in 1.5 mi SSE 6.9 mph - 0.00 in Snow Light Snow
8:35 AM 21.9 °F 13.4 °F 19.9 °F 92% 29.51 in 3.0 mi SSE 6.9 mph - 0.00 in Snow Light Snow
8:54 AM 21.9 °F 14.5 °F 19.0 °F 89% 29.57 in 4.0 mi SE 5.8 mph - 0.00 in Snow Light Snow
8:58 AM 21.9 °F 14.5 °F 19.0 °F 89% 29.51 in 1.8 mi SE 5.8 mph - 0.00 in Snow Light Snow
9:14 AM 21.9 °F 12.5 °F 19.9 °F 92% 29.52 in 0.2 mi SSE 8.1 mph - 0.01 in Fog , Snow Snow
9:21 AM 21.9 °F 11.0 °F 19.9 °F 92% 29.52 in 0.5 mi South 10.4 mph - 0.01 in Fog , Snow Snow
9:54 AM 23.0 °F 13.1 °F 21.0 °F 92% 29.58 in 0.2 mi South 9.2 mph - 0.03 in Fog , Snow Snow
10:54 AM 23.0 °F 13.9 °F 21.0 °F 92% 29.56 in 0.2 mi South 8.1 mph - 0.04 in Fog , Snow Snow
11:54 AM 23.0 °F 15.8 °F 21.0 °F 92% 29.52 in 0.2 mi SSE 5.8 mph - 0.07 in Fog , Snow Snow
12:54 PM 24.1 °F 15.2 °F 21.0 °F 88% 29.49 in 0.5 mi South 8.1 mph - 0.07 in Fog , Snow Snow
1:54 PM 25.0 °F 19.3 °F 21.9 °F 88% 29.49 in 0.8 mi SW 4.6 mph - 0.01 in Snow Light Snow
1:56 PM 25.0 °F 19.3 °F 21.9 °F 88% 29.43 in 1.0 mi SW 4.6 mph - 0.00 in Snow Light Snow
2:20 PM 26.1 °F 19.4 °F 23.0 °F 88% 29.44 in 2.0 mi West 5.8 mph - 0.00 in Snow Light Snow
2:28 PM 25.0 °F 17.1 °F 21.0 °F 85% 29.44 in 1.8 mi WSW 6.9 mph - 0.00 in Snow Light Snow
2:42 PM 26.1 °F 17.6 °F 21.9 °F 84% 29.45 in 3.0 mi WNW 8.1 mph - 0.00 in Snow Light Snow
2:54 PM 26.1 °F 16.8 °F 21.0 °F 81% 29.52 in 3.0 mi West 9.2 mph - 0.00 in Snow Light Snow
3:27 PM 25.0 °F 15.5 °F 21.0 °F 85% 29.48 in 5.0 mi WNW 9.2 mph - 0.00 in   Overcast
3:36 PM 25.0 °F 13.6 °F 21.0 °F 85% 29.48 in 7.0 mi WNW 12.7 mph - 0.00 in   Overcast
3:54 PM 25.0 °F 14.2 °F 21.0 °F 85% 29.56 in 4.0 mi WNW 11.5 mph - 0.00 in Snow Light Snow
4:54 PM 21.0 °F 9.3 °F 14.0 °F 74% 29.64 in 10.0 mi NW 11.5 mph 23.0 mph 0.00 in   Overcast
5:40 PM 19.0 °F 6.8 °F 12.0 °F 74% 29.61 in 10.0 mi NNW 11.5 mph - N/A   Scattered Clouds
5:54 PM 18.0 °F 6.9 °F 12.0 °F 78% 29.70 in 10.0 mi NW 9.2 mph - N/A   Clear
6:11 PM 18.0 °F 6.9 °F 12.0 °F 78% 29.64 in 10.0 mi NW 9.2 mph - N/A   Mostly Cloudy
6:54 PM 15.1 °F 1.1 °F 9.0 °F 77% 29.75 in 10.0 mi NW 12.7 mph - N/A   Scattered Clouds
7:54 PM 12.0 °F 1.5 °F 8.1 °F 84% 29.78 in 10.0 mi WNW 6.9 mph - N/A   Clear
8:54 PM 10.0 °F -0.9 °F 3.9 °F 76% 29.83 in 10.0 mi NW 6.9 mph - N/A   Clear
9:54 PM 7.0 °F -4.5 °F 1.0 °F 77% 29.87 in 10.0 mi WNW 6.9 mph - N/A   Clear
10:54 PM 6.1 °F -6.8 °F -2.9 °F 67% 29.90 in 10.0 mi WNW 8.1 mph - N/A   Clear
11:54 PM 3.0 °F -9.3 °F -2.9 °F 76% 29.95 in 10.0 mi West 6.9 mph - N/A   Clear